Data No,UTC Date,UTC Time,Latitude,Longitude,Course(deg),Temp(degC),Sal(psu)
465,2024/1/26,8:13,42-36.99N,141-37.05E,225,3.457,
466,2024/1/26,8:14,42-36.81N,141-36.77E,226,3.585,
467,2024/1/26,8:15,42-36.57N,141-36.63E,194,4.254,
468,2024/1/26,8:16,42-36.30N,141-36.73E,159,4.495,
469,2024/1/26,8:17,42-36.05N,141-36.90E,152,4.616,
470,2024/1/26,8:18,42-35.79N,141-37.10E,151,4.728,
471,2024/1/26,8:19,42-35.51N,141-37.31E,151,4.91,
472,2024/1/26,8:20,42-35.22N,141-37.52E,151,4.683,
473,2024/1/26,8:21,42-34.94N,141-37.72E,152,4.598,
474,2024/1/26,8:22,42-34.65N,141-37.92E,152,5.337,
475,2024/1/26,8:23,42-34.36N,141-38.12E,152,6.266,
476,2024/1/26,8:24,42-34.06N,141-38.33E,153,6.83,
477,2024/1/26,8:25,42-33.75N,141-38.54E,153,7.166,
478,2024/1/26,8:26,42-33.44N,141-38.76E,152,7.28,
479,2024/1/26,8:27,42-33.16N,141-38.96E,152,7.353,
480,2024/1/26,8:28,42-32.85N,141-39.17E,152,7.394,
481,2024/1/26,8:29,42-32.54N,141-39.39E,152,7.42,
482,2024/1/26,8:30,42-32.25N,141-39.59E,153,7.426,
483,2024/1/26,8:31,42-31.92N,141-39.81E,153,7.441,
484,2024/1/26,8:32,42-31.65N,141-39.99E,153,7.445,
485,2024/1/26,8:33,42-31.34N,141-40.21E,153,7.464,
486,2024/1/26,8:34,42-31.00N,141-40.44E,153,7.494,
487,2024/1/26,8:35,42-30.70N,141-40.64E,153,7.569,
488,2024/1/26,8:36,42-30.39N,141-40.85E,154,7.687,
489,2024/1/26,8:37,42-30.07N,141-41.07E,153,7.731,
490,2024/1/26,8:38,42-29.77N,141-41.31E,144,7.799,
491,2024/1/26,8:39,42-29.53N,141-41.65E,130,7.85,
492,2024/1/26,8:40,42-29.32N,141-42.01E,124,7.869,
493,2024/1/26,8:41,42-29.14N,141-42.41E,121,7.871,
494,2024/1/26,8:42,42-28.95N,141-42.84E,120,7.875,
495,2024/1/26,8:43,42-28.77N,141-43.23E,120,7.865,
496,2024/1/26,8:44,42-28.58N,141-43.66E,121,7.811,
497,2024/1/26,8:45,42-28.41N,141-44.06E,122,7.713,
498,2024/1/26,8:46,42-28.21N,141-44.47E,122,7.53,
499,2024/1/26,8:47,42-28.01N,141-44.89E,122,7.285,
500,2024/1/26,8:48,42-27.82N,141-45.28E,123,7.088,
501,2024/1/26,8:49,42-27.62N,141-45.69E,122,7.489,
502,2024/1/26,8:50,42-27.43N,141-46.09E,122,7.801,
503,2024/1/26,8:51,42-27.24N,141-46.50E,122,7.925,
504,2024/1/26,8:52,42-27.04N,141-46.91E,122,7.955,
505,2024/1/26,8:53,42-26.85N,141-47.31E,122,7.914,
506,2024/1/26,8:54,42-26.65N,141-47.73E,123,7.764,
507,2024/1/26,8:55,42-26.46N,141-48.12E,123,7.528,
508,2024/1/26,8:56,42-26.26N,141-48.52E,123,7.369,
509,2024/1/26,8:57,42-26.07N,141-48.93E,122,7.087,
510,2024/1/26,8:58,42-25.87N,141-49.32E,123,7.017,
511,2024/1/26,8:59,42-25.67N,141-49.73E,123,7.318,
512,2024/1/26,9:00,42-25.48N,141-50.13E,123,7.459,
513,2024/1/26,9:01,42-25.27N,141-50.55E,123,7.556,
514,2024/1/26,9:02,42-25.07N,141-50.94E,123,7.651,
515,2024/1/26,9:03,42-24.89N,141-51.33E,123,7.728,
516,2024/1/26,9:04,42-24.68N,141-51.74E,122,7.758,
517,2024/1/26,9:05,42-24.50N,141-52.13E,123,7.773,
518,2024/1/26,9:06,42-24.30N,141-52.53E,123,7.707,
519,2024/1/26,9:07,42-24.09N,141-52.97E,122,7.653,
520,2024/1/26,9:08,42-23.91N,141-53.34E,122,7.54,
521,2024/1/26,9:09,42-23.70N,141-53.76E,123,7.458,
522,2024/1/26,9:10,42-23.51N,141-54.16E,123,7.356,
523,2024/1/26,9:11,42-23.31N,141-54.57E,123,7.25,
524,2024/1/26,9:12,42-23.11N,141-54.98E,123,7.131,
525,2024/1/26,9:13,42-22.92N,141-55.38E,122,6.944,
526,2024/1/26,9:14,42-22.71N,141-55.80E,123,6.498,
527,2024/1/26,9:15,42-22.52N,141-56.19E,123,6.54,
528,2024/1/26,9:16,42-22.32N,141-56.61E,123,6.7,
529,2024/1/26,9:17,42-22.12N,141-57.01E,123,6.784,
530,2024/1/26,9:18,42-21.93N,141-57.42E,122,6.835,
531,2024/1/26,9:19,42-21.72N,141-57.85E,123,6.991,
532,2024/1/26,9:20,42-21.54N,141-58.24E,122,7.42,
533,2024/1/26,9:21,42-21.34N,141-58.65E,122,7.517,
534,2024/1/26,9:22,42-21.14N,141-59.07E,122,7.513,
535,2024/1/26,9:23,42-20.95N,141-59.47E,122,7.376,
536,2024/1/26,9:24,42-20.75N,141-59.89E,122,7.424,
537,2024/1/26,9:25,42-20.56N,142-00.30E,122,7.506,
538,2024/1/26,9:26,42-20.37N,142-00.71E,121,7.521,
539,2024/1/26,9:27,42-20.18N,142-01.13E,122,7.51,
540,2024/1/26,9:28,42-19.99N,142-01.53E,121,7.483,
541,2024/1/26,9:29,42-19.79N,142-01.95E,122,7.475,
542,2024/1/26,9:30,42-19.59N,142-02.38E,122,7.45,
543,2024/1/26,9:31,42-19.41N,142-02.78E,122,7.387,
544,2024/1/26,9:32,42-19.21N,142-03.20E,122,7.349,
545,2024/1/26,9:33,42-19.02N,142-03.62E,122,7.319,
546,2024/1/26,9:34,42-18.83N,142-04.02E,121,7.309,
547,2024/1/26,9:35,42-18.64N,142-04.43E,121,7.303,
548,2024/1/26,9:36,42-18.45N,142-04.86E,121,7.322,
549,2024/1/26,9:37,42-18.26N,142-05.27E,121,7.308,
550,2024/1/26,9:38,42-18.07N,142-05.68E,121,7.254,
551,2024/1/26,9:39,42-17.87N,142-06.12E,122,7.297,
552,2024/1/26,9:40,42-17.68N,142-06.53E,121,7.193,
553,2024/1/26,9:41,42-17.49N,142-06.93E,122,7.091,
554,2024/1/26,9:42,42-17.30N,142-07.35E,122,7.087,
555,2024/1/26,9:43,42-17.11N,142-07.76E,121,6.894,
556,2024/1/26,9:44,42-16.91N,142-08.18E,121,6.683,
557,2024/1/26,9:45,42-16.73N,142-08.59E,121,6.51,
558,2024/1/26,9:46,42-16.54N,142-09.01E,121,6.463,
559,2024/1/26,9:47,42-16.34N,142-09.43E,122,6.473,
560,2024/1/26,9:48,42-16.15N,142-09.84E,122,6.474,
561,2024/1/26,9:49,42-15.95N,142-10.26E,122,6.418,
562,2024/1/26,9:50,42-15.75N,142-10.68E,122,6.492,
563,2024/1/26,9:51,42-15.56N,142-11.08E,122,6.622,
564,2024/1/26,9:52,42-15.36N,142-11.50E,122,6.706,
565,2024/1/26,9:53,42-15.16N,142-11.93E,121,6.518,
566,2024/1/26,9:54,42-14.98N,142-12.33E,122,6.482,
567,2024/1/26,9:55,42-14.78N,142-12.74E,122,6.442,
568,2024/1/26,9:56,42-14.58N,142-13.15E,122,6.329,
569,2024/1/26,9:57,42-14.38N,142-13.58E,122,6.248,
570,2024/1/26,9:58,42-14.20N,142-13.98E,122,6.169,
571,2024/1/26,9:59,42-14.00N,142-14.40E,122,6.148,
572,2024/1/26,10:00,42-13.80N,142-14.81E,122,6.098,
573,2024/1/26,10:01,42-13.61N,142-15.22E,121,6.079,
574,2024/1/26,10:02,42-13.42N,142-15.65E,121,6.053,
575,2024/1/26,10:03,42-13.23N,142-16.06E,121,6.125,
576,2024/1/26,10:04,42-13.04N,142-16.48E,120,6.181,
577,2024/1/26,10:05,42-12.86N,142-16.89E,120,6.268,
578,2024/1/26,10:06,42-12.68N,142-17.31E,121,6.35,
579,2024/1/26,10:07,42-12.48N,142-17.74E,121,6.401,
580,2024/1/26,10:08,42-12.29N,142-18.16E,121,6.442,
581,2024/1/26,10:09,42-12.08N,142-18.63E,121,6.542,
582,2024/1/26,10:10,42-11.92N,142-18.98E,121,6.587,
583,2024/1/26,10:11,42-11.73N,142-19.40E,121,6.677,
584,2024/1/26,10:12,42-11.54N,142-19.82E,121,6.716,
585,2024/1/26,10:13,42-11.35N,142-20.24E,120,6.779,
586,2024/1/26,10:14,42-11.17N,142-20.65E,121,6.811,
587,2024/1/26,10:15,42-10.99N,142-21.06E,121,6.77,
588,2024/1/26,10:16,42-10.80N,142-21.47E,121,6.744,
589,2024/1/26,10:17,42-10.60N,142-21.90E,121,6.677,
590,2024/1/26,10:18,42-10.42N,142-22.30E,122,6.634,
591,2024/1/26,10:19,42-10.23N,142-22.71E,121,6.587,
592,2024/1/26,10:20,42-10.04N,142-23.12E,121,6.469,
593,2024/1/26,10:21,42-09.86N,142-23.54E,121,6.382,
594,2024/1/26,10:22,42-09.66N,142-23.96E,121,6.329,
595,2024/1/26,10:23,42-09.48N,142-24.37E,121,6.171,
596,2024/1/26,10:24,42-09.30N,142-24.78E,120,6.086,
597,2024/1/26,10:25,42-09.11N,142-25.20E,121,6.059,
598,2024/1/26,10:26,42-08.94N,142-25.59E,121,6.065,
599,2024/1/26,10:27,42-08.76N,142-26.01E,120,6.037,
600,2024/1/26,10:28,42-08.59N,142-26.41E,120,6.035,
601,2024/1/26,10:29,42-08.41N,142-26.82E,119,5.953,
602,2024/1/26,10:30,42-08.23N,142-27.24E,120,5.812,
603,2024/1/26,10:31,42-08.06N,142-27.64E,120,5.653,
604,2024/1/26,10:32,42-07.89N,142-28.05E,120,5.428,
605,2024/1/26,10:33,42-07.72N,142-28.44E,119,5.351,
606,2024/1/26,10:34,42-07.56N,142-28.84E,118,5.26,
607,2024/1/26,10:35,42-07.39N,142-29.25E,119,5.161,
608,2024/1/26,10:36,42-07.22N,142-29.65E,119,5.136,
609,2024/1/26,10:37,42-07.06N,142-30.06E,119,5.064,
610,2024/1/26,10:38,42-06.90N,142-30.45E,118,5.003,
611,2024/1/26,10:39,42-06.74N,142-30.85E,119,4.936,
612,2024/1/26,10:40,42-06.56N,142-31.27E,119,4.9,
613,2024/1/26,10:41,42-06.41N,142-31.64E,119,4.89,
614,2024/1/26,10:42,42-06.24N,142-32.04E,119,4.886,
615,2024/1/26,10:43,42-06.08N,142-32.43E,119,4.896,
616,2024/1/26,10:44,42-05.92N,142-32.83E,118,4.92,
617,2024/1/26,10:45,42-05.75N,142-33.23E,119,4.933,
618,2024/1/26,10:46,42-05.59N,142-33.63E,118,4.989,
619,2024/1/26,10:47,42-05.43N,142-34.03E,118,5.039,
620,2024/1/26,10:48,42-05.26N,142-34.43E,120,5.078,
621,2024/1/26,10:49,42-05.10N,142-34.82E,119,5.094,
622,2024/1/26,10:50,42-04.93N,142-35.22E,118,5.125,
623,2024/1/26,10:51,42-04.77N,142-35.61E,119,5.186,
624,2024/1/26,10:52,42-04.60N,142-36.01E,119,5.245,
625,2024/1/26,10:53,42-04.43N,142-36.40E,120,5.303,
626,2024/1/26,10:54,42-04.27N,142-36.79E,119,5.295,
627,2024/1/26,10:55,42-04.10N,142-37.19E,119,5.231,
628,2024/1/26,10:56,42-03.93N,142-37.60E,119,5.21,
629,2024/1/26,10:57,42-03.77N,142-37.99E,119,5.224,
630,2024/1/26,10:58,42-03.61N,142-38.38E,119,5.209,
631,2024/1/26,10:59,42-03.44N,142-38.78E,119,5.186,
632,2024/1/26,11:00,42-03.27N,142-39.17E,119,5.166,
633,2024/1/26,11:01,42-03.10N,142-39.56E,120,5.173,
634,2024/1/26,11:02,42-02.92N,142-39.97E,120,5.142,
635,2024/1/26,11:03,42-02.76N,142-40.34E,120,5.12,
636,2024/1/26,11:04,42-02.59N,142-40.74E,119,5.124,
637,2024/1/26,11:05,42-02.42N,142-41.13E,120,5.099,
638,2024/1/26,11:06,42-02.26N,142-41.51E,120,5.065,
639,2024/1/26,11:07,42-02.09N,142-41.91E,119,5.082,
640,2024/1/26,11:08,42-01.92N,142-42.32E,119,5.13,
641,2024/1/26,11:09,42-01.76N,142-42.70E,119,5.081,
642,2024/1/26,11:10,42-01.60N,142-43.09E,119,5.155,
643,2024/1/26,11:11,42-01.44N,142-43.48E,119,5.196,
644,2024/1/26,11:12,42-01.27N,142-43.88E,119,5.168,
645,2024/1/26,11:13,42-01.11N,142-44.27E,120,5.224,
646,2024/1/26,11:14,42-00.94N,142-44.66E,119,5.241,
647,2024/1/26,11:15,42-00.78N,142-45.05E,119,5.131,
648,2024/1/26,11:16,42-00.61N,142-45.44E,119,5.089,
649,2024/1/26,11:17,42-00.44N,142-45.84E,120,5.126,
650,2024/1/26,11:18,42-00.28N,142-46.23E,119,5.066,
651,2024/1/26,11:19,42-00.12N,142-46.63E,118,4.86,
652,2024/1/26,11:20,41-59.95N,142-47.04E,118,4.837,
653,2024/1/26,11:21,41-59.79N,142-47.41E,120,4.834,
654,2024/1/26,11:22,41-59.62N,142-47.82E,120,4.786,
655,2024/1/26,11:23,41-59.46N,142-48.21E,119,4.75,
656,2024/1/26,11:24,41-59.29N,142-48.60E,119,4.782,
657,2024/1/26,11:25,41-59.12N,142-49.01E,119,4.784,
658,2024/1/26,11:26,41-58.96N,142-49.39E,120,4.829,
659,2024/1/26,11:27,41-58.78N,142-49.79E,121,4.809,
660,2024/1/26,11:28,41-58.60N,142-50.19E,121,4.929,
661,2024/1/26,11:29,41-58.44N,142-50.55E,121,4.775,
662,2024/1/26,11:30,41-58.26N,142-50.94E,121,4.72,
663,2024/1/26,11:31,41-58.09N,142-51.32E,120,4.728,
664,2024/1/26,11:32,41-57.91N,142-51.71E,122,4.739,
665,2024/1/26,11:33,41-57.73N,142-52.10E,121,4.771,
666,2024/1/26,11:34,41-57.56N,142-52.47E,120,4.793,
667,2024/1/26,11:35,41-57.39N,142-52.85E,122,4.73,
668,2024/1/26,11:36,41-57.21N,142-53.24E,121,4.748,
669,2024/1/26,11:37,41-57.05N,142-53.61E,120,4.758,
670,2024/1/26,11:38,41-56.87N,142-54.01E,121,4.744,
671,2024/1/26,11:39,41-56.69N,142-54.39E,121,4.779,
672,2024/1/26,11:40,41-56.52N,142-54.75E,123,4.873,
673,2024/1/26,11:41,41-56.34N,142-55.13E,122,4.877,
674,2024/1/26,11:42,41-56.17N,142-55.50E,121,4.829,
675,2024/1/26,11:43,41-55.99N,142-55.88E,122,4.812,
676,2024/1/26,11:44,41-55.82N,142-56.25E,121,4.786,
677,2024/1/26,11:45,41-55.65N,142-56.62E,122,4.773,
678,2024/1/26,11:46,41-55.47N,142-57.00E,121,4.768,
679,2024/1/26,11:47,41-55.30N,142-57.38E,121,4.766,
680,2024/1/26,11:48,41-55.12N,142-57.77E,121,4.736,
681,2024/1/26,11:49,41-54.94N,142-58.15E,122,4.655,
682,2024/1/26,11:50,41-54.78N,142-58.51E,122,4.606,
683,2024/1/26,11:51,41-54.60N,142-58.89E,123,4.617,
684,2024/1/26,11:52,41-54.42N,142-59.27E,121,4.649,
685,2024/1/26,11:53,41-54.24N,142-59.65E,122,4.667,
686,2024/1/26,11:54,41-54.07N,143-00.01E,120,4.663,
687,2024/1/26,11:55,41-53.90N,143-00.39E,123,4.668,
688,2024/1/26,11:56,41-53.72N,143-00.77E,122,4.665,
689,2024/1/26,11:57,41-53.56N,143-01.13E,121,4.615,
690,2024/1/26,11:58,41-53.38N,143-01.51E,122,4.648,
691,2024/1/26,11:59,41-53.20N,143-01.88E,122,4.43,
692,2024/1/26,12:00,41-53.03N,143-02.26E,121,4.144,
693,2024/1/26,12:01,41-52.86N,143-02.62E,121,3.933,
694,2024/1/26,12:02,41-52.69N,143-03.01E,121,3.717,
695,2024/1/26,12:03,41-52.52N,143-03.37E,122,3.633,
696,2024/1/26,12:04,41-52.35N,143-03.73E,123,3.443,
697,2024/1/26,12:05,41-52.18N,143-04.11E,120,3.356,
698,2024/1/26,12:06,41-52.01N,143-04.49E,121,3.336,
699,2024/1/26,12:07,41-51.84N,143-04.85E,121,3.327,
700,2024/1/26,12:08,41-51.66N,143-05.24E,120,3.328,
701,2024/1/26,12:09,41-51.50N,143-05.60E,120,3.359,
702,2024/1/26,12:10,41-51.33N,143-05.97E,121,3.373,
703,2024/1/26,12:11,41-51.15N,143-06.35E,120,3.367,
704,2024/1/26,12:12,41-50.99N,143-06.72E,121,3.36,
705,2024/1/26,12:13,41-50.81N,143-07.12E,120,3.301,
706,2024/1/26,12:14,41-50.65N,143-07.47E,120,3.235,
707,2024/1/26,12:15,41-50.48N,143-07.85E,120,3.181,
708,2024/1/26,12:16,41-50.31N,143-08.24E,121,3.107,
709,2024/1/26,12:17,41-50.13N,143-08.62E,121,3.05,
710,2024/1/26,12:18,41-49.96N,143-09.00E,121,3.038,
711,2024/1/26,12:19,41-49.79N,143-09.37E,121,3.04,
712,2024/1/26,12:20,41-49.62N,143-09.75E,121,3.025,
713,2024/1/26,12:21,41-49.45N,143-10.13E,121,3.003,
714,2024/1/26,12:22,41-49.29N,143-10.50E,120,2.987,
715,2024/1/26,12:23,41-49.12N,143-10.89E,121,2.946,
716,2024/1/26,12:24,41-48.95N,143-11.25E,121,3.002,
717,2024/1/26,12:25,41-48.78N,143-11.63E,119,3.042,
718,2024/1/26,12:26,41-48.61N,143-12.01E,120,3.042,
719,2024/1/26,12:27,41-48.43N,143-12.40E,121,3.004,
720,2024/1/26,12:28,41-48.27N,143-12.77E,121,3.08,
721,2024/1/26,12:29,41-48.10N,143-13.14E,121,3.166,
722,2024/1/26,12:30,41-47.92N,143-13.52E,121,3.226,
723,2024/1/26,12:31,41-47.78N,143-13.91E,110,3.231,
724,2024/1/26,12:32,41-47.77N,143-14.30E,80,3.238,
725,2024/1/26,12:33,41-47.84N,143-14.71E,78,3.251,
726,2024/1/26,12:34,41-47.91N,143-15.09E,75,3.277,
727,2024/1/26,12:35,41-48.00N,143-15.49E,73,3.29,
728,2024/1/26,12:36,41-48.08N,143-15.90E,75,3.325,
729,2024/1/26,12:37,41-48.15N,143-16.28E,75,3.344,
730,2024/1/26,12:38,41-48.23N,143-16.67E,75,3.346,
731,2024/1/26,12:39,41-48.30N,143-17.06E,75,3.344,
732,2024/1/26,12:40,41-48.37N,143-17.42E,76,3.343,
733,2024/1/26,12:41,41-48.44N,143-17.81E,75,3.349,
734,2024/1/26,12:42,41-48.52N,143-18.19E,76,3.333,
735,2024/1/26,12:43,41-48.59N,143-18.61E,76,3.336,
736,2024/1/26,12:44,41-48.65N,143-18.98E,77,3.354,
737,2024/1/26,12:45,41-48.71N,143-19.39E,79,3.356,
738,2024/1/26,12:46,41-48.77N,143-19.80E,80,3.357,
739,2024/1/26,12:47,41-48.81N,143-20.20E,81,3.37,
740,2024/1/26,12:48,41-48.86N,143-20.64E,80,3.334,
741,2024/1/26,12:49,41-48.92N,143-21.01E,74,3.317,
742,2024/1/26,12:50,41-49.08N,143-21.31E,44,3.267,
743,2024/1/26,12:51,41-49.31N,143-21.53E,33,3.245,
744,2024/1/26,12:52,41-49.55N,143-21.73E,30,3.255,
745,2024/1/26,12:53,41-49.79N,143-21.92E,29,3.224,
746,2024/1/26,12:54,41-50.03N,143-22.10E,30,3.167,
747,2024/1/26,12:55,41-50.28N,143-22.29E,31,3.054,
748,2024/1/26,12:56,41-50.53N,143-22.51E,32,3.004,
749,2024/1/26,12:57,41-50.76N,143-22.72E,34,2.961,
750,2024/1/26,12:58,41-51.00N,143-22.93E,34,2.959,
751,2024/1/26,12:59,41-51.23N,143-23.14E,34,2.921,
752,2024/1/26,13:00,41-51.48N,143-23.37E,33,2.851,
753,2024/1/26,13:01,41-51.74N,143-23.55E,25,2.756,
754,2024/1/26,13:02,41-52.00N,143-23.75E,33,2.664,
755,2024/1/26,13:03,41-52.24N,143-23.94E,30,2.523,
756,2024/1/26,13:04,41-52.50N,143-24.14E,28,2.377,
757,2024/1/26,13:05,41-52.75N,143-24.32E,29,2.321,
758,2024/1/26,13:06,41-53.00N,143-24.51E,29,2.33,
759,2024/1/26,13:07,41-53.25N,143-24.70E,30,2.329,
760,2024/1/26,13:08,41-53.50N,143-24.90E,31,2.365,
761,2024/1/26,13:09,41-53.76N,143-25.11E,31,2.417,
762,2024/1/26,13:10,41-54.02N,143-25.33E,31,2.473,
763,2024/1/26,13:11,41-54.27N,143-25.54E,31,2.482,
764,2024/1/26,13:12,41-54.53N,143-25.75E,31,2.489,
765,2024/1/26,13:13,41-54.80N,143-25.97E,30,2.457,
766,2024/1/26,13:14,41-55.07N,143-26.18E,30,2.446,
767,2024/1/26,13:15,41-55.33N,143-26.38E,30,2.435,
768,2024/1/26,13:16,41-55.61N,143-26.60E,30,2.422,
769,2024/1/26,13:17,41-55.88N,143-26.81E,29,2.446,
770,2024/1/26,13:18,41-56.13N,143-27.00E,29,2.434,
771,2024/1/26,13:19,41-56.40N,143-27.21E,29,2.418,
772,2024/1/26,13:20,41-56.66N,143-27.41E,30,2.436,
773,2024/1/26,13:21,41-56.93N,143-27.62E,30,2.442,
774,2024/1/26,13:22,41-57.20N,143-27.83E,30,2.438,
775,2024/1/26,13:23,41-57.47N,143-28.03E,29,2.454,
776,2024/1/26,13:24,41-57.75N,143-28.25E,30,2.43,
777,2024/1/26,13:25,41-58.02N,143-28.46E,30,2.458,
778,2024/1/26,13:26,41-58.29N,143-28.67E,29,2.448,
779,2024/1/26,13:27,41-58.56N,143-28.88E,29,2.434,
780,2024/1/26,13:28,41-58.84N,143-29.09E,29,2.404,
781,2024/1/26,13:29,41-59.12N,143-29.30E,29,2.338,
782,2024/1/26,13:30,41-59.39N,143-29.50E,29,2.281,
783,2024/1/26,13:31,41-59.67N,143-29.71E,29,2.276,
784,2024/1/26,13:32,41-59.94N,143-29.92E,29,2.243,
785,2024/1/26,13:33,42-00.23N,143-30.14E,29,2.28,
786,2024/1/26,13:34,42-00.51N,143-30.35E,28,2.297,
787,2024/1/26,13:35,42-00.78N,143-30.54E,28,2.325,
788,2024/1/26,13:36,42-01.06N,143-30.75E,28,2.302,
789,2024/1/26,13:37,42-01.36N,143-30.97E,28,2.293,
790,2024/1/26,13:38,42-01.62N,143-31.16E,28,2.311,
791,2024/1/26,13:39,42-01.91N,143-31.36E,28,2.333,
792,2024/1/26,13:40,42-02.19N,143-31.57E,28,2.313,
793,2024/1/26,13:41,42-02.46N,143-31.77E,29,2.309,
794,2024/1/26,13:42,42-02.74N,143-31.98E,28,2.33,
795,2024/1/26,13:43,42-03.02N,143-32.18E,29,2.312,
796,2024/1/26,13:44,42-03.30N,143-32.39E,28,2.318,
797,2024/1/26,13:45,42-03.58N,143-32.59E,28,2.328,
798,2024/1/26,13:46,42-03.85N,143-32.79E,29,2.324,
799,2024/1/26,13:47,42-04.13N,143-33.00E,29,2.326,
800,2024/1/26,13:48,42-04.41N,143-33.21E,29,2.328,
801,2024/1/26,13:49,42-04.68N,143-33.41E,29,2.325,
802,2024/1/26,13:50,42-04.95N,143-33.62E,29,2.322,
803,2024/1/26,13:51,42-05.23N,143-33.83E,29,2.327,
804,2024/1/26,13:52,42-05.51N,143-34.04E,29,2.322,
805,2024/1/26,13:53,42-05.78N,143-34.25E,29,2.325,
806,2024/1/26,13:54,42-06.06N,143-34.47E,30,2.326,
807,2024/1/26,13:55,42-06.34N,143-34.68E,29,2.322,
808,2024/1/26,13:56,42-06.60N,143-34.88E,30,2.324,
809,2024/1/26,13:57,42-06.87N,143-35.09E,30,2.336,
810,2024/1/26,13:58,42-07.14N,143-35.30E,30,2.33,
811,2024/1/26,13:59,42-07.42N,143-35.52E,30,2.332,
812,2024/1/26,14:00,42-07.68N,143-35.73E,31,2.342,
813,2024/1/26,14:01,42-07.96N,143-35.95E,30,2.341,
814,2024/1/26,14:02,42-08.23N,143-36.17E,30,2.348,
815,2024/1/26,14:03,42-08.49N,143-36.38E,30,2.346,
816,2024/1/26,14:04,42-08.77N,143-36.60E,30,2.337,
817,2024/1/26,14:05,42-09.05N,143-36.82E,30,2.334,
818,2024/1/26,14:06,42-09.31N,143-37.03E,30,2.343,
819,2024/1/26,14:07,42-09.57N,143-37.25E,31,2.334,
820,2024/1/26,14:08,42-09.85N,143-37.47E,31,2.339,
821,2024/1/26,14:09,42-10.12N,143-37.68E,31,2.333,
822,2024/1/26,14:10,42-10.38N,143-37.90E,31,2.327,
823,2024/1/26,14:11,42-10.66N,143-38.13E,31,2.318,
824,2024/1/26,14:12,42-10.92N,143-38.33E,31,2.318,
825,2024/1/26,14:13,42-11.18N,143-38.55E,31,2.324,
826,2024/1/26,14:14,42-11.47N,143-38.78E,31,2.305,
827,2024/1/26,14:15,42-11.72N,143-38.98E,31,2.335,
828,2024/1/26,14:16,42-11.99N,143-39.21E,31,2.317,
829,2024/1/26,14:17,42-12.25N,143-39.42E,31,2.317,
830,2024/1/26,14:18,42-12.52N,143-39.64E,31,2.308,
831,2024/1/26,14:19,42-12.79N,143-39.86E,31,2.308,
832,2024/1/26,14:20,42-13.05N,143-40.08E,31,2.291,
833,2024/1/26,14:21,42-13.31N,143-40.30E,31,2.294,
834,2024/1/26,14:22,42-13.58N,143-40.52E,32,2.287,
835,2024/1/26,14:23,42-13.83N,143-40.73E,32,2.29,
836,2024/1/26,14:24,42-14.09N,143-40.96E,31,2.286,
837,2024/1/26,14:25,42-14.35N,143-41.18E,32,2.275,
838,2024/1/26,14:26,42-14.62N,143-41.40E,32,2.303,
839,2024/1/26,14:27,42-14.86N,143-41.60E,31,2.308,
840,2024/1/26,14:28,42-15.12N,143-41.82E,32,2.32,
841,2024/1/26,14:29,42-15.38N,143-42.03E,31,2.311,
842,2024/1/26,14:30,42-15.63N,143-42.25E,32,2.312,
843,2024/1/26,14:31,42-15.90N,143-42.47E,31,2.264,
844,2024/1/26,14:32,42-16.16N,143-42.68E,31,2.24,
845,2024/1/26,14:33,42-16.43N,143-42.91E,31,2.24,
846,2024/1/26,14:34,42-16.70N,143-43.13E,31,2.254,
847,2024/1/26,14:35,42-16.97N,143-43.35E,31,2.266,
848,2024/1/26,14:36,42-17.25N,143-43.58E,31,2.256,
849,2024/1/26,14:37,42-17.52N,143-43.81E,31,2.242,
850,2024/1/26,14:38,42-17.79N,143-44.03E,31,2.213,
851,2024/1/26,14:39,42-18.07N,143-44.26E,31,2.2,
852,2024/1/26,14:40,42-18.35N,143-44.49E,31,2.185,
853,2024/1/26,14:41,42-18.63N,143-44.72E,31,2.186,
854,2024/1/26,14:42,42-18.89N,143-44.94E,31,2.183,
855,2024/1/26,14:43,42-19.17N,143-45.16E,31,2.189,
856,2024/1/26,14:44,42-19.44N,143-45.39E,31,2.199,
857,2024/1/26,14:45,42-19.71N,143-45.61E,31,2.2,
858,2024/1/26,14:46,42-20.00N,143-45.86E,32,2.189,
859,2024/1/26,14:47,42-20.25N,143-46.07E,32,2.221,
860,2024/1/26,14:48,42-20.53N,143-46.30E,32,2.199,
861,2024/1/26,14:49,42-20.80N,143-46.54E,32,2.203,
862,2024/1/26,14:50,42-21.06N,143-46.76E,33,2.191,
863,2024/1/26,14:51,42-21.34N,143-47.00E,33,2.192,
864,2024/1/26,14:52,42-21.61N,143-47.24E,33,2.177,
865,2024/1/26,14:53,42-21.86N,143-47.47E,33,2.176,
866,2024/1/26,14:54,42-22.13N,143-47.70E,32,2.286,
867,2024/1/26,14:55,42-22.40N,143-47.92E,30,2.312,
868,2024/1/26,14:56,42-22.67N,143-48.14E,30,2.321,
869,2024/1/26,14:57,42-22.96N,143-48.36E,30,2.3,
870,2024/1/26,14:58,42-23.22N,143-48.56E,29,2.295,
871,2024/1/26,14:59,42-23.50N,143-48.78E,29,2.298,
872,2024/1/26,15:00,42-23.77N,143-48.98E,29,2.291,
873,2024/1/26,15:01,42-24.05N,143-49.19E,29,2.298,
874,2024/1/26,15:02,42-24.33N,143-49.40E,29,2.298,
875,2024/1/26,15:03,42-24.61N,143-49.61E,29,2.294,
876,2024/1/26,15:04,42-24.89N,143-49.82E,28,2.315,
877,2024/1/26,15:05,42-25.18N,143-50.04E,28,2.317,
878,2024/1/26,15:06,42-25.45N,143-50.24E,29,2.333,
879,2024/1/26,15:07,42-25.74N,143-50.44E,28,2.315,
880,2024/1/26,15:08,42-26.02N,143-50.65E,28,2.318,
881,2024/1/26,15:09,42-26.30N,143-50.86E,28,2.333,
882,2024/1/26,15:10,42-26.58N,143-51.06E,28,2.371,
883,2024/1/26,15:11,42-26.86N,143-51.27E,28,2.409,
884,2024/1/26,15:12,42-27.14N,143-51.47E,28,2.446,
885,2024/1/26,15:13,42-27.43N,143-51.69E,28,2.446,
886,2024/1/26,15:14,42-27.71N,143-51.90E,29,2.434,
887,2024/1/26,15:15,42-27.99N,143-52.10E,28,2.437,
888,2024/1/26,15:16,42-28.27N,143-52.31E,28,2.446,
889,2024/1/26,15:17,42-28.55N,143-52.52E,28,2.447,
890,2024/1/26,15:18,42-28.83N,143-52.73E,28,2.457,
891,2024/1/26,15:19,42-29.12N,143-52.94E,28,2.451,
892,2024/1/26,15:20,42-29.40N,143-53.15E,28,2.442,
893,2024/1/26,15:21,42-29.67N,143-53.36E,28,2.438,
894,2024/1/26,15:22,42-29.96N,143-53.57E,29,2.439,
895,2024/1/26,15:23,42-30.23N,143-53.78E,28,2.436,
896,2024/1/26,15:24,42-30.52N,143-53.99E,28,2.438,
897,2024/1/26,15:25,42-30.82N,143-54.21E,28,2.454,
898,2024/1/26,15:26,42-31.10N,143-54.41E,28,2.432,
899,2024/1/26,15:27,42-31.38N,143-54.63E,28,2.437,
900,2024/1/26,15:28,42-31.67N,143-54.84E,28,2.42,
901,2024/1/26,15:29,42-31.96N,143-55.05E,28,2.416,
902,2024/1/26,15:30,42-32.23N,143-55.25E,28,2.41,
903,2024/1/26,15:31,42-32.53N,143-55.47E,28,2.413,
904,2024/1/26,15:32,42-32.81N,143-55.67E,28,2.42,
905,2024/1/26,15:33,42-33.10N,143-55.89E,28,2.409,
906,2024/1/26,15:34,42-33.40N,143-56.10E,28,2.391,
907,2024/1/26,15:35,42-33.68N,143-56.31E,28,2.391,
908,2024/1/26,15:36,42-33.98N,143-56.52E,28,2.389,
909,2024/1/26,15:37,42-34.26N,143-56.73E,28,2.401,
910,2024/1/26,15:38,42-34.56N,143-56.95E,28,2.402,
911,2024/1/26,15:39,42-34.84N,143-57.15E,27,2.397,
912,2024/1/26,15:40,42-35.14N,143-57.37E,28,2.401,
913,2024/1/26,15:41,42-35.44N,143-57.58E,28,2.42,
914,2024/1/26,15:42,42-35.72N,143-57.79E,28,2.41,
915,2024/1/26,15:43,42-36.02N,143-58.01E,28,2.414,
916,2024/1/26,15:44,42-36.32N,143-58.23E,28,2.425,
917,2024/1/26,15:45,42-36.61N,143-58.44E,28,2.433,
918,2024/1/26,15:46,42-36.91N,143-58.66E,28,2.436,
919,2024/1/26,15:47,42-37.23N,143-58.90E,28,2.443,
920,2024/1/26,15:48,42-37.53N,143-59.12E,28,2.441,
921,2024/1/26,15:49,42-37.83N,143-59.34E,29,2.427,
922,2024/1/26,15:50,42-38.08N,143-59.53E,29,2.431,